EST,Max TemperatureF,Mean TemperatureF,Min TemperatureF,Max Dew PointF,MeanDew PointF,Min DewpointF,Max Humidity, Mean Humidity, Min Humidity, Max Sea Level PressureIn, Mean Sea Level PressureIn, Min Sea Level PressureIn, Max VisibilityMiles, Mean VisibilityMiles, Min VisibilityMiles, Max Wind SpeedMPH, Mean Wind SpeedMPH, Max Gust SpeedMPH,PrecipitationIn, CloudCover, Events, WindDirDegrees
2013-12-1,47,42,37,31,27,23,59,54,48,30.24,30.13,29.99,10,10,10,7,4,10,0.00,6,,209
2013-12-2,54,50,45,39,35,31,76,63,50,29.97,29.87,29.79,10,10,10,6,1,9,0.00,6,,189
2013-12-3,56,50,44,46,43,39,86,76,66,29.88,29.84,29.81,10,9,0,6,2,9,0.00,6,,184
2013-12-4,69,60,50,54,48,44,83,69,55,29.93,29.88,29.82,10,10,10,13,5,22,T,5,,156
2013-12-5,70,56,41,62,53,39,93,80,66,30.07,29.94,29.87,10,6,1,13,6,24,1.30,7,Rain,251
2013-12-6,41,37,32,38,33,30,100,95,89,30.30,30.10,30.02,10,4,1,10,5,17,2.15,8,Rain-Thunderstorm,32
2013-12-7,32,30,28,29,26,23,92,85,78,30.52,30.45,30.29,10,8,2,8,5,14,T,8,Snow,39
2013-12-8,40,34,27,39,31,22,96,87,78,30.43,30.14,30.00,10,2,0,8,3,14,0.64,8,Fog-Rain,94
2013-12-9,39,35,30,38,34,26,100,89,78,30.22,30.12,30.00,10,6,0,13,5,19,0.15,8,Fog-Rain,289
2013-12-10,36,31,26,26,22,16,92,72,51,30.37,30.18,30.06,10,6,1,13,5,19,0.10,6,Snow,291
2013-12-11,45,33,21,25,20,16,84,62,39,30.45,30.39,30.32,10,10,10,14,5,21,0.00,1,,258
2013-12-12,32,26,19,19,11,5,69,51,32,30.56,30.47,30.39,10,10,10,10,5,15,T,4,,260
2013-12-13,46,34,22,25,12,8,65,45,24,30.39,30.29,30.14,10,10,10,9,4,13,T,2,,211
2013-12-14,49,42,34,46,36,20,93,71,48,30.13,29.88,29.73,10,9,4,17,6,31,0.30,8,Rain,241
2013-12-15,38,34,29,34,27,23,92,82,72,30.16,30.02,29.83,10,8,2,16,7,24,0.02,8,Rain-Snow,268
2013-12-16,47,38,29,31,28,24,85,72,58,30.17,30.11,30.04,10,10,8,9,4,17,T,5,,231
2013-12-17,46,39,31,36,31,23,85,74,62,30.21,30.07,29.98,10,10,6,18,7,33,0.05,7,Rain,259
2013-12-18,43,35,26,25,18,11,81,57,33,30.31,30.25,30.18,10,10,10,14,5,20,0.00,2,,226
2013-12-19,62,48,34,23,19,16,44,34,23,30.22,30.14,30.07,10,10,10,10,5,18,0.00,0,,212
2013-12-20,64,57,49,48,37,20,62,45,28,30.07,30.02,29.96,10,10,10,13,6,21,T,7,,194
2013-12-21,73,65,56,61,55,49,87,72,57,29.98,29.84,29.68,10,9,2,23,9,38,0.12,6,Rain,195
2013-12-22,69,62,54,59,53,49,93,80,67,30.00,29.89,29.71,10,6,0,25,6,42,1.21,6,Fog-Rain,216
2013-12-23,56,43,30,49,34,22,92,79,66,30.36,30.21,30.00,10,9,0,16,6,24,0.04,8,Rain,301
2013-12-24,31,25,18,24,16,5,81,62,42,30.53,30.43,30.31,10,7,0,14,6,22,0.01,6,Snow,310
2013-12-25,40,28,16,20,13,9,80,56,32,30.48,30.38,30.26,10,10,10,9,3,14,0.00,2,,193
2013-12-26,43,38,32,24,20,16,64,50,36,30.40,30.34,30.24,10,10,10,12,4,17,0.00,4,,258
2013-12-27,51,37,23,23,19,17,75,51,27,30.47,30.40,30.36,10,10,10,7,3,12,0.00,0,,204
2013-12-28,50,42,34,35,21,18,79,55,31,30.36,30.26,30.05,10,10,6,8,3,12,0.16,2,Rain,187
2013-12-29,41,40,38,39,38,36,100,93,85,29.99,29.89,29.83,10,5,0,12,4,17,0.83,8,Fog-Rain,26
2013-12-30,40,34,28,36,28,24,92,81,69,30.23,30.14,29.99,10,8,1,15,5,24,0.01,8,Rain-Snow,278
2013-12-31,39,32,24,23,20,17,88,66,44,30.43,30.32,30.18,10,10,10,14,6,20,0.00,3,,238